Flag for Poland Weather past 2 weeks in Kraków, Poland

37 °F


Feels Like: 37 °F
Forecast: 31 / 44 °F
Wind: 1 mph from North

Location: Krakow Airport

Current Time: Oct 13, 2015 at 11:35:50 AM

Latest Report: Oct 13, 2015 at 11:00 AM

Visibility: 3 mi

Pressure: 30.12 "Hg

Humidity: 87%

Dew point: 34 °F

Location of KrakówLocation

Historic Weather in Kraków — Graph


Kraków temperature yesterday

Maximum temperature yesterday: 37 °F (at 1:00 AM)
Minimum temperature yesterday: 32 °F (at 6:00 AM)
Average temperature yesterday: 33 °F

Past Weeks' High & Low Weather Summary

High75 °F (Oct 4, 2:30 PM)100% (Oct 2, 2:30 AM)30.57 "Hg (Oct 2, 2:30 AM)
Low30 °F (Oct 10, 5:30 AM)30% (Oct 2, 5:00 PM)29.86 "Hg (Oct 6, 5:30 PM)
Average48 °F75%30.19 "Hg
* Reported Sep 28 10:00 AM — Oct 13 10:30 AM, Kraków, Weather by CustomWeather, © 2015

Note: Actual official high and low records may vary slightly from our data, if they occured in-between our weather recording intervals... More about our weather records


Kraków weather history for previous 24 hours

Time TempWeatherWind HumidityBarometerVisibility
10:30 AM
Tue, Oct 13
37 °FFog.2 mph93%30.12 "Hg3 mi
10:00 AM37 °FFog.2 mph93%30.12 "Hg2 mi
9:30 AM36 °FFog.2 mph93%30.12 "Hg2 mi
9:00 AM36 °FFog.2 mph93%30.12 "Hg1 mi
8:30 AM34 °FFog.2 mph100%30.12 "Hg1 mi
8:00 AM34 °FFog.1 mph100%30.12 "Hg1 mi
7:30 AM34 °FFog.1 mph100%30.12 "Hg1 mi
7:00 AM34 °FFog.No wind100%30.12 "Hg1 mi
6:30 AM34 °FFog.No wind100%30.09 "Hg1 mi
6:00 AM34 °FFog.No wind100%30.09 "Hg1 mi
5:30 AM34 °FFog.No wind100%30.09 "Hg1 mi
5:00 AM34 °FFog.1 mph100%30.09 "Hg1 mi
4:30 AM34 °FLow clouds.2 mph100%30.09 "Hg1 mi
4:00 AM34 °FFog.2 mph100%30.09 "Hg1 mi
3:30 AM34 °FLow clouds.3 mph100%30.09 "Hg0 mi
3:00 AM34 °FFog.5 mph100%30.09 "Hg0 mi
2:30 AM34 °FFog.3 mph100%30.09 "Hg0 mi
2:00 AM34 °FFog.3 mph100%30.09 "Hg1 mi
1:30 AM34 °FFog.3 mph100%30.09 "Hg1 mi
1:00 AM34 °FFog.3 mph100%30.09 "Hg1 mi
12:30 AM34 °FFog.3 mph100%30.09 "Hg1 mi
12:00 AM34 °FFog.3 mph100%30.09 "Hg1 mi
11:30 PM
Mon, Oct 12
34 °FFog.3 mph100%30.09 "Hg1 mi
11:00 PM34 °FFog.2 mph100%30.09 "Hg1 mi
10:30 PM34 °FFog.1 mph100%30.09 "Hg1 mi
10:00 PM34 °FFog.2 mph100%30.09 "Hg1 mi
9:30 PM34 °FFog.2 mph93%30.09 "Hg1 mi
9:00 PM34 °FFog.2 mph93%30.09 "Hg1 mi
8:30 PM34 °FFog.2 mph93%30.09 "Hg2 mi
8:00 PM34 °FFog.1 mph93%30.09 "Hg2 mi
7:30 PM34 °FLight rain. Fog.2 mph93%30.09 "Hg2 mi
7:00 PM34 °FLight rain. Fog.2 mph93%30.09 "Hg2 mi
6:30 PM34 °FLight rain. Fog.2 mph93%30.09 "Hg2 mi
6:00 PM34 °FLight rain. Fog.6 mph93%30.09 "Hg2 mi
5:30 PM34 °FLight rain. Fog.7 mph93%30.07 "Hg2 mi
5:00 PM34 °FLight rain. Fog.9 mph93%30.07 "Hg2 mi
4:30 PM34 °FLight rain. Fog.9 mph93%30.07 "Hg2 mi
4:00 PM34 °FLight rain. Fog.9 mph93%30.07 "Hg2 mi
3:30 PM34 °FLight rain. Fog.10 mph93%30.07 "Hg1 mi
3:00 PM34 °FLight rain. Fog.12 mph93%30.07 "Hg2 mi
2:30 PM34 °FLight rain. Fog.10 mph93%30.07 "Hg1 mi
2:00 PM34 °FLight snow. Fog.10 mph93%30.07 "Hg1 mi
1:30 PM32 °FLight snow. Ice fog.12 mph100%30.07 "Hg1 mi
1:00 PM32 °FLight snow. Ice fog.12 mph100%30.07 "Hg1 mi
12:30 PM32 °FLight snow. Ice fog.12 mph100%30.07 "Hg1 mi
12:00 PM32 °FLight snow. Ice fog.13 mph100%30.07 "Hg1 mi
11:30 AM32 °FLight snow. Ice fog.13 mph100%30.07 "Hg1 mi
11:00 AM32 °FLight snow. Ice fog.14 mph100%30.07 "Hg1 mi
Weather by CustomWeather, © 2015

See weather overviewHow to use our weather pages